IQ1LY-3 Weather Reports


time (UTC)temp
C
wind
direction
speed
KPH
gust
KPH
rain 1hr
cm
rain 24hr
cm
rain mn
cm
humidity
%
barometer
mb
20260507124436 21 158 6.4 6.4 0.00 0.00 0.00 68 1012.9
20260507123434 21 148 8.0 9.7 0.00 0.00 0.00 68 1012.9
20260507122433 20 203 0.0 6.4 0.00 0.00 0.00 69 1012.9
20260507121432 20 90 8.0 8.0 0.00 0.00 0.00 69 1012.5
20260507120431 20 135 4.8 6.4 0.00 0.00 0.00 68 1012.9
20260507115359 20 165 3.2 8.0 0.00 0.00 0.00 69 1012.9
20260507114358 21 158 3.2 3.2 0.00 0.00 0.00 69 1012.9
20260507113358 20 113 0.0 3.2 0.00 0.00 0.00 70 1012.9
20260507112357 20 90 8.0 8.0 0.00 0.00 0.00 70 1012.9
20260507111356 20 113 0.0 14.5 0.00 0.00 0.00 70 1012.9
20260507110355 20 158 14.5 14.5 0.00 0.00 0.00 71 1012.9
20260507105354 20 119 6.4 9.7 0.00 0.00 0.00 70 1012.9
20260507104323 20 68 4.8 6.4 0.00 0.00 0.00 70 1012.9
20260507103322 20 68 4.8 6.4 0.00 0.00 0.00 70 1012.9
20260507102249 20 135 4.8 17.7 0.00 0.00 0.00 70 1012.9
20260507101249 20 52 9.7 12.9 0.00 0.00 0.00 71 1012.9
20260507100144 20 113 3.2 6.4 0.00 0.00 0.00 71 1012.9
20260507095113 20 135 6.4 8.0 0.00 0.00 0.00 71 1012.9
20260507094112 20 113 3.2 12.9 0.00 0.00 0.00 70 1012.9
20260507093111 21 98 3.2 4.8 0.00 0.00 0.00 70 1012.9
20260507092109 20 68 3.2 3.2 0.00 0.00 0.00 69 1012.9
20260507091109 20 90 1.6 1.6 0.00 0.00 0.00 70 1012.9
20260507090108 20 158 9.7 9.7 0.00 0.00 0.00 70 1012.5
20260507085107 20 83 3.2 6.4 0.00 0.00 0.00 69 1012.5
20260507084106 20 113 0.0 8.0 0.00 0.00 0.00 69 1012.5
20260507083105 20 135 8.0 8.0 0.00 0.00 0.00 68 1012.2
20260507082104 20 54 3.2 4.8 0.00 0.00 0.00 67 1012.2
20260507081103 20 90 0.0 0.0 0.00 0.00 0.00 68 1012.2
20260507075102 20 113 0.0 0.0 0.00 0.00 0.00 67 1012.2
20260507072537 19 90 0.0 0.0 0.00 0.00 0.00 72 1012.2
20260507071536 19 113 0.0 0.0 0.00 0.00 0.00 73 1011.9
20260507070535 18 158 0.0 0.0 0.00 0.00 0.00 74 1012.2
20260507065534 18 158 0.0 0.0 0.00 0.00 0.00 75 1011.9
20260507064533 18 135 0.0 0.0 0.00 0.00 0.00 77 1011.9
20260507063533 17 135 0.0 1.6 0.00 0.00 0.00 78 1011.5
20260507062532 17 270 0.0 0.0 0.00 0.00 0.00 80 1011.5
20260507061500 16 293 0.0 0.0 0.00 0.00 0.00 83 1011.5
20260507060459 15 203 0.0 0.0 0.00 0.00 0.00 86 1011.5
20260507054021 12 270 0.0 0.0 0.00 0.00 0.00 88 1011.2
20260507053020 12 270 0.0 0.0 0.00 0.00 0.00 88 1011.2
20260507052019 12 270 0.0 0.0 0.00 0.00 0.00 88 1011.2
20260507051018 12 338 0.0 0.0 0.00 0.00 0.00 88 1010.8
20260507050017 12 270 0.0 0.0 0.00 0.00 0.00 88 1010.8
20260507045016 11 23 0.0 0.0 0.00 0.00 0.00 88 1010.8
20260507044015 11 270 0.0 0.0 0.00 0.00 0.00 88 1010.8
20260507043014 11 270 0.0 0.0 0.00 0.00 0.00 88 1010.5
20260507042013 11 338 0.0 0.0 0.00 0.00 0.00 88 1010.5
20260507041012 11 158 0.0 0.0 0.00 0.00 0.00 88 1010.5
20260507040011 11 270 0.0 0.0 0.00 0.00 0.00 88 1010.5
20260507034939 11 68 0.0 0.0 0.00 0.00 0.00 88 1010.5
20260507033906 11 270 0.0 0.0 0.00 0.00 0.00 89 1010.5
20260507032906 11 248 0.0 0.0 0.00 0.00 0.00 89 1010.5
20260507031905 11 203 0.0 0.0 0.00 0.00 0.00 89 1010.5
20260507030905 11 270 0.0 0.0 0.00 0.00 0.00 89 1010.5
20260507025904 11 293 0.0 0.0 0.00 0.00 0.00 89 1010.5
20260507024903 11 315 0.0 0.0 0.00 0.00 0.00 89 1010.5
20260507023902 11 293 0.0 0.0 0.00 0.00 0.00 89 1010.2
20260507022758 11 270 0.0 0.0 0.00 0.00 0.00 89 1010.2
20260507021758 11 248 0.0 0.0 0.00 0.00 0.00 89 1010.2
20260507020757 11 270 0.0 0.0 0.00 0.00 0.00 89 1010.2
20260507015756 11 315 0.0 0.0 0.00 0.00 0.00 89 1010.2
20260507014756 11 338 0.0 0.0 0.00 0.00 0.00 89 1009.8
20260507013755 11 225 0.0 0.0 0.00 0.00 0.00 89 1010.2
20260507012753 11 23 0.0 0.0 0.00 0.00 0.00 89 1009.8
20260507011752 11 293 0.0 0.0 0.00 0.00 0.00 88 1009.8
20260507010751 11 293 0.0 0.0 0.00 0.00 0.00 88 1009.8
20260507005719 11 270 0.0 0.0 0.00 0.00 0.00 88 1010.2
20260507004718 11 293 0.0 0.0 0.00 0.00 0.00 88 1010.2
20260507003717 11 270 0.0 0.0 0.00 0.00 0.00 88 1010.2
20260507002645 11 270 0.0 0.0 0.00 0.00 0.00 87 1010.2
20260507001644 11 270 0.0 0.0 0.00 0.00 0.00 87 1010.2
20260507000643 11 270 0.0 0.0 0.00 0.00 0.00 87 1009.8
20260506235642 11 270 0.0 0.0 0.00 0.00 0.00 87 1009.8
20260506234641 11 270 0.0 0.0 0.00 0.00 0.00 87 1009.8
20260506233640 12 270 0.0 0.0 0.00 0.00 0.00 86 1010.2
20260506232640 12 338 0.0 0.0 0.00 0.00 0.00 86 1010.2
20260506231639 12 23 0.0 0.0 0.00 0.00 0.00 86 1009.8
20260506230638 12 270 0.0 0.0 0.00 0.00 0.00 86 1009.8
20260506225637 12 293 0.0 0.0 0.00 0.00 0.00 86 1009.8
20260506224636 12 270 0.0 0.0 0.00 0.00 0.00 85 1009.8
20260506223636 12 293 0.0 0.0 0.00 0.00 0.00 85 1009.8
20260506222635 12 270 0.0 0.0 0.00 0.00 0.00 84 1009.8
20260506221634 12 270 0.0 0.0 0.00 0.00 0.00 84 1009.8
20260506220633 12 270 0.0 0.0 0.00 0.00 0.00 83 1009.8
20260506215601 13 270 0.0 0.0 0.00 0.00 0.00 83 1009.8
20260506214601 13 113 0.0 0.0 0.00 0.00 0.00 82 1009.8
20260506213600 13 90 0.0 0.0 0.00 0.00 0.00 82 1009.8
20260506212559 13 135 0.0 0.0 0.00 0.00 0.00 81 1009.5
20260506211558 13 68 0.0 0.0 0.00 0.00 0.00 80 1009.5
20260506210557 13 225 0.0 0.0 0.00 0.00 0.00 80 1009.5
20260506205525 14 225 0.0 0.0 0.00 0.00 0.00 79 1009.5
20260506204525 14 158 0.0 0.0 0.00 0.00 0.00 79 1009.5
20260506203524 14 270 0.0 0.0 0.00 0.00 0.00 78 1009.1
20260506202523 14 293 0.0 0.0 0.00 0.00 0.00 77 1009.1
20260506201450 15 293 0.0 0.0 0.00 0.00 0.00 76 1008.8
20260506200449 15 293 0.0 0.0 0.00 0.00 0.00 75 1008.8
20260506195417 15 293 0.0 0.0 0.00 0.00 0.00 73 1008.5
20260506194417 16 68 0.0 0.0 0.00 0.00 0.00 72 1008.5
20260506193416 16 270 0.0 0.0 0.00 0.00 0.00 69 1008.1
20260506192415 16 248 0.0 0.0 0.00 0.00 0.00 68 1008.1
20260506191343 16 248 0.0 0.0 0.00 0.00 0.00 68 1007.8
20260506190342 17 248 0.0 0.0 0.00 0.00 0.00 68 1007.8
20260506185341 17 248 0.0 0.0 0.00 0.00 0.00 65 1007.8
20260506184340 18 203 0.0 0.0 0.00 0.00 0.00 63 1007.5
20260506183339 18 225 0.0 0.0 0.00 0.00 0.00 61 1007.5
20260506182338 18 270 0.0 0.0 0.00 0.00 0.00 61 1007.5
20260506181337 18 158 0.0 3.2 0.00 0.00 0.00 60 1007.1
20260506180336 19 173 3.2 20.9 0.00 0.00 0.00 59 1007.1
20260506175335 19 180 0.0 17.7 0.00 0.00 0.00 59 1007.1
20260506174335 19 180 9.7 12.9 0.00 0.00 0.00 58 1006.8
20260506173334 19 241 8.0 8.0 0.00 0.00 0.00 57 1006.8
20260506172333 20 248 3.2 14.5 0.00 0.00 0.00 58 1006.8
20260506171300 20 270 1.6 6.4 0.00 0.00 0.00 58 1006.8
20260506170259 20 270 4.8 6.4 0.00 0.00 0.00 59 1006.8
20260506165258 20 248 0.0 4.8 0.00 0.00 0.00 60 1006.8
20260506164226 20 270 4.8 11.3 0.00 0.00 0.00 60 1006.4
20260506163225 20 203 6.4 9.7 0.00 0.00 0.00 60 1006.4
20260506162224 21 162 8.0 9.7 0.00 0.00 0.00 59 1006.4
20260506161223 21 135 4.8 9.7 0.00 0.00 0.00 59 1006.8
20260506160143 21 180 9.7 9.7 0.00 0.00 0.00 59 1006.4
20260506155112 21 239 4.8 9.7 0.00 0.00 0.00 59 1006.4
20260506154111 21 158 9.7 9.7 0.00 0.00 0.00 61 1006.4
20260506153039 21 248 4.8 12.9 0.00 0.00 0.00 60 1006.4
20260506152038 21 248 6.4 6.4 0.00 0.00 0.00 62 1006.4
20260506151037 21 135 3.2 11.3 0.00 0.00 0.00 63 1006.4
20260506145934 21 162 3.2 11.3 0.00 0.00 0.00 64 1006.8
20260506144933 21 216 6.4 9.7 0.00 0.00 0.00 63 1006.8
20260506143932 21 100 4.8 17.7 0.00 0.00 0.00 62 1006.8
20260506142931 21 180 20.9 22.5 0.00 0.00 0.00 61 1006.8
20260506141859 21 278 6.4 6.4 0.00 0.00 0.00 60 1006.8
20260506140858 22 270 4.8 4.8 0.00 0.00 0.00 58 1006.8
20260506135858 22 170 3.2 16.1 0.00 0.00 0.00 58 1006.8
20260506134857 22 211 14.5 16.1 0.00 0.00 0.00 57 1006.8
20260506133856 22 113 1.6 11.3 0.00 0.00 0.00 54 1006.8
20260506132824 22 225 11.3 11.3 0.00 0.00 0.00 56 1006.8
20260506131752 22 135 0.0 25.7 0.00 0.00 0.00 57 1006.8
20260506130750 22 219 3.2 6.4 0.00 0.00 0.00 58 1006.8